Вернуться в каталог

THOR ABLESTAR DEB

АктивенLEO
NORAD 653·DEBRIS·🇺🇸 United States

Запущен Jun 29, 1961 с Cape Canaveral Space Force Station

Loading…

Ближайшие Пролёты (ближайшие 24 часа)

TLE

СвежийSource: Space-Track

Эпоха: Sep 14, 2026, 14:25 UTC

1 00653U 61015HE  26257.60085273  .00000858  00000-0  95418-3 0  9991
2 00653  67.4509 323.5035 0160797 266.3474 244.8476 13.70528121230134

Отслеживайте THOR ABLESTAR DEB в реальном времени с AllMySat

Download on the App Store